Location: Gro� Glienicke
(52.4675°N, 13.1079°E)
Time: 08:31:39
(UTC+00:00)

Cosmos 2084 - Pass Details

Date: 06 July 2020
Orbit: 571 x 611 km, 62.8° (Epoch: 04 August)

Event Time Altitude Azimuth Distance (km) Brightness Sun altitude
Rises 20:07:46 0° 312° (NW) 2,885 9.6 -4.9°
Reaches altitude 10° 20:10:03 10° 312° (NW) 1,977 8.0 -5.1°
Maximum altitude 20:14:32 89° 226° (SW) 618 3.6 -5.6°
Drops below altitude 10° 20:18:59 10° 135° (SE) 1,958 5.4 -6.0°
Enters shadow 20:19:31 - 135° (SE) 2,165 5.7 -6.0°
